• în Republica Moldova
  • Lista ţărilor
  • Pe 7 zile
  • Temperatura apei
  • Hartă satelitară
  • Meteo pe hartă
  • Widget-uri
  • user-avatar
    Intrare

    Meteo pe oră la Yevlakh

    Astăzi, 22 Septembrie, Vineri

    Timp Temperatura Precipitaţii Vânt Presiune Umiditate
    00:00 +27°C° 0 mm 2 m/s 760 mmHg 41%
    01:00 +26°C° 0,1 mm 1 m/s 759 mmHg 42%
    02:00 +26°C° 0,1 mm 1 m/s 759 mmHg 43%
    03:00 +25°C° 0,1 mm 1 m/s 759 mmHg 45%
    04:00 +25°C° 0,1 mm 1 m/s 759 mmHg 45%
    05:00 +25°C° 0,1 mm 1 m/s 759 mmHg 46%
    06:00 +25°C° 0,1 mm 1 m/s 759 mmHg 46%
    07:00 +26°C° 0 mm 1 m/s 759 mmHg 41%
    08:00 +28°C° 0 mm 1 m/s 758 mmHg 36%
    09:00 +30°C° 0 mm 1 m/s 758 mmHg 31%
    10:00 +32°C° 0 mm 1 m/s 758 mmHg 28%
    11:00 +33°C° 0 mm 1 m/s 757 mmHg 25%
    12:00 +35°C° 0 mm 2 m/s 757 mmHg 22%
    13:00 +36°C° 0 mm 2 m/s 757 mmHg 22%
    14:00 +36°C° 0 mm 2 m/s 756 mmHg 21%
    15:00 +37°C° 0 mm 2 m/s 756 mmHg 20%
    16:00 +35°C° 0 mm 2 m/s 756 mmHg 23%
    17:00 +34°C° 0 mm 2 m/s 756 mmHg 25%
    18:00 +32°C° 0 mm 2 m/s 756 mmHg 27%
    19:00 +31°C° 0 mm 2 m/s 757 mmHg 30%
    20:00 +30°C° 0 mm 2 m/s 757 mmHg 33%
    21:00 +29°C° 0 mm 2 m/s 758 mmHg 36%
    22:00 +28°C° 0 mm 2 m/s 758 mmHg 40%
    23:00 +27°C° 0 mm 2 m/s 759 mmHg 44%

    Mâine, 23 Septembrie, Sâmbătă

    Timp Temperatura Precipitaţii Vânt Presiune Umiditate
    00:00 +26°C° 0 mm 1 m/s 759 mmHg 48%
    01:00 +26°C° 0 mm 1 m/s 759 mmHg 50%
    02:00 +26°C° 0 mm 1 m/s 759 mmHg 51%
    03:00 +25°C° 0 mm 1 m/s 759 mmHg 52%
    04:00 +25°C° 0 mm 1 m/s 760 mmHg 53%
    05:00 +25°C° 0 mm 1 m/s 760 mmHg 53%
    06:00 +25°C° 0 mm 1 m/s 760 mmHg 53%
    07:00 +26°C° 0 mm 1 m/s 760 mmHg 48%
    08:00 +28°C° 0 mm 1 m/s 760 mmHg 44%
    09:00 +30°C° 0 mm 1 m/s 760 mmHg 40%
    10:00 +32°C° 0 mm 2 m/s 760 mmHg 36%
    11:00 +34°C° 0 mm 2 m/s 760 mmHg 32%
    12:00 +35°C° 0 mm 3 m/s 760 mmHg 29%
    13:00 +36°C° 0 mm 4 m/s 760 mmHg 27%
    14:00 +36°C° 0 mm 4 m/s 759 mmHg 25%
    15:00 +37°C° 0 mm 5 m/s 759 mmHg 23%
    16:00 +35°C° 0 mm 5 m/s 759 mmHg 24%
    17:00 +34°C° 0 mm 4 m/s 760 mmHg 25%
    18:00 +33°C° 0 mm 4 m/s 760 mmHg 26%
    19:00 +30°C° 0,1 mm 4 m/s 760 mmHg 28%
    20:00 +29°C° 0,1 mm 4 m/s 761 mmHg 30%
    21:00 +28°C° 0,1 mm 4 m/s 761 mmHg 31%
    22:00 +27°C° 0 mm 4 m/s 762 mmHg 34%
    23:00 +27°C° 0 mm 3 m/s 762 mmHg 37%

    Poimâine, 24 Septembrie, Duminică

    Timp Temperatura Precipitaţii Vânt Presiune Umiditate
    00:00 +26°C° 0 mm 3 m/s 762 mmHg 39%
    01:00 +25°C° 0 mm 2 m/s 762 mmHg 41%
    02:00 +25°C° 0 mm 2 m/s 762 mmHg 43%
    03:00 +24°C° 0 mm 1 m/s 762 mmHg 45%
    04:00 +24°C° 0 mm 1 m/s 762 mmHg 46%
    05:00 +23°C° 0 mm 1 m/s 763 mmHg 47%
    06:00 +23°C° 0 mm 1 m/s 763 mmHg 48%
    07:00 +25°C° 0 mm 1 m/s 763 mmHg 44%
    08:00 +27°C° 0 mm 1 m/s 763 mmHg 39%
    09:00 +29°C° 0 mm 2 m/s 763 mmHg 35%
    10:00 +30°C° 0 mm 2 m/s 763 mmHg 32%
    11:00 +31°C° 0 mm 2 m/s 763 mmHg 29%
    12:00 +33°C° 0 mm 3 m/s 762 mmHg 26%
    13:00 +34°C° 0 mm 3 m/s 762 mmHg 25%
    14:00 +34°C° 0 mm 3 m/s 762 mmHg 24%
    15:00 +35°C° 0 mm 3 m/s 762 mmHg 23%
    16:00 +33°C° 0 mm 3 m/s 762 mmHg 26%
    17:00 +31°C° 0 mm 3 m/s 762 mmHg 28%
    18:00 +29°C° 0 mm 2 m/s 763 mmHg 31%
    19:00 +29°C° 0 mm 3 m/s 763 mmHg 36%
    20:00 +28°C° 0 mm 4 m/s 764 mmHg 41%
    21:00 +27°C° 0 mm 4 m/s 764 mmHg 46%
    22:00 +26°C° 0 mm 4 m/s 764 mmHg 50%
    23:00 +25°C° 0 mm 3 m/s 764 mmHg 55%

    25 Septembrie, Luni

    Timp Temperatura Precipitaţii Vânt Presiune Umiditate
    00:00 +24°C° 0 mm 2 m/s 764 mmHg 59%
    01:00 +24°C° 0 mm 2 m/s 764 mmHg 62%
    02:00 +24°C° 0 mm 2 m/s 764 mmHg 64%
    03:00 +23°C° 0 mm 1 m/s 764 mmHg 66%
    04:00 +23°C° 0 mm 1 m/s 764 mmHg 68%
    05:00 +22°C° 0 mm 1 m/s 764 mmHg 69%
    06:00 +22°C° 0 mm 1 m/s 764 mmHg 71%
    07:00 +24°C° 0 mm 1 m/s 764 mmHg 64%
    08:00 +25°C° 0 mm 1 m/s 764 mmHg 58%
    09:00 +27°C° 0 mm 1 m/s 764 mmHg 52%
    10:00 +28°C° 0 mm 2 m/s 764 mmHg 46%
    11:00 +30°C° 0 mm 2 m/s 764 mmHg 41%
    12:00 +31°C° 0 mm 3 m/s 763 mmHg 35%
    13:00 +33°C° 0 mm 3 m/s 763 mmHg 33%
    14:00 +33°C° 0 mm 3 m/s 763 mmHg 31%
    15:00 +34°C° 0 mm 4 m/s 763 mmHg 29%
    16:00 +33°C° 0 mm 4 m/s 763 mmHg 32%
    17:00 +30°C° 0 mm 4 m/s 763 mmHg 35%
    18:00 +29°C° 0 mm 4 m/s 764 mmHg 37%
    19:00 +28°C° 0 mm 4 m/s 764 mmHg 41%
    20:00 +27°C° 0 mm 5 m/s 764 mmHg 45%
    21:00 +26°C° 0 mm 6 m/s 765 mmHg 49%
    22:00 +25°C° 0 mm 5 m/s 765 mmHg 53%
    23:00 +23°C° 0 mm 5 m/s 765 mmHg 56%

    26 Septembrie, Marţi

    Timp Temperatura Precipitaţii Vânt Presiune Umiditate
    00:00 +23°C° 0 mm 4 m/s 765 mmHg 60%
    01:00 +22°C° 0 mm 4 m/s 764 mmHg 62%
    02:00 +22°C° 0 mm 3 m/s 764 mmHg 64%
    03:00 +21°C° 0 mm 3 m/s 764 mmHg 66%
    04:00 +21°C° 0 mm 3 m/s 764 mmHg 68%
    05:00 +20°C° 0 mm 3 m/s 765 mmHg 69%
    06:00 +20°C° 0 mm 2 m/s 765 mmHg 70%
    07:00 +21°C° 0 mm 3 m/s 765 mmHg 65%
    08:00 +22°C° 0 mm 3 m/s 764 mmHg 60%
    09:00 +25°C° 0 mm 4 m/s 764 mmHg 56%
    10:00 +25°C° 0 mm 4 m/s 764 mmHg 54%
    11:00 +26°C° 0 mm 4 m/s 764 mmHg 51%
    12:00 +27°C° 0 mm 4 m/s 763 mmHg 49%
    13:00 +27°C° 0 mm 4 m/s 763 mmHg 48%
    14:00 +28°C° 0 mm 4 m/s 762 mmHg 47%
    15:00 +28°C° 0 mm 3 m/s 762 mmHg 46%
    16:00 +27°C° 0 mm 3 m/s 762 mmHg 49%
    17:00 +26°C° 0 mm 3 m/s 762 mmHg 53%
    18:00 +25°C° 0 mm 3 m/s 762 mmHg 56%
    19:00 +25°C° 0 mm 3 m/s 762 mmHg 58%
    20:00 +24°C° 0 mm 3 m/s 762 mmHg 60%
    21:00 +23°C° 0 mm 4 m/s 762 mmHg 62%
    22:00 +22°C° 0 mm 3 m/s 762 mmHg 64%
    23:00 +22°C° 0 mm 3 m/s 762 mmHg 66%

    27 Septembrie, Miercuri

    Timp Temperatura Precipitaţii Vânt Presiune Umiditate
    00:00 +21°C° 0 mm 3 m/s 762 mmHg 68%
    01:00 +21°C° 0 mm 2 m/s 762 mmHg 68%
    02:00 +21°C° 0 mm 2 m/s 762 mmHg 69%
    03:00 +20°C° 0 mm 2 m/s 762 mmHg 69%
    04:00 +21°C° 0 mm 1 m/s 762 mmHg 69%
    05:00 +21°C° 0 mm 1 m/s 762 mmHg 70%
    06:00 +21°C° 0 mm 1 m/s 762 mmHg 70%
    07:00 +22°C° 0,1 mm 1 m/s 762 mmHg 70%
    08:00 +21°C° 0,1 mm 2 m/s 763 mmHg 69%
    09:00 +23°C° 0,1 mm 2 m/s 763 mmHg 68%
    10:00 +22°C° 0,1 mm 3 m/s 763 mmHg 69%
    11:00 +21°C° 0,1 mm 3 m/s 763 mmHg 70%
    12:00 +21°C° 0,1 mm 4 m/s 762 mmHg 71%
    13:00 +21°C° 0 mm 4 m/s 763 mmHg 70%
    14:00 +21°C° 0 mm 4 m/s 763 mmHg 68%
    15:00 +21°C° 0 mm 4 m/s 763 mmHg 67%
    16:00 +21°C° 0 mm 4 m/s 763 mmHg 68%
    17:00 +21°C° 0 mm 3 m/s 763 mmHg 69%
    18:00 +20°C° 0 mm 3 m/s 764 mmHg 69%
    19:00 +20°C° 0 mm 3 m/s 764 mmHg 68%
    20:00 +20°C° 0 mm 3 m/s 764 mmHg 67%
    21:00 +20°C° 0 mm 3 m/s 765 mmHg 66%
    22:00 +20°C° 0 mm 3 m/s 765 mmHg 66%
    23:00 +20°C° 0 mm 3 m/s 765 mmHg 66%
    Arată mai mult